Location: Festilli
(46.4000°N, 11.6667°E)
Time: 19:33:56
(UTC+00:00)

ASTEX 1 - Pass Details

Date: 03 March 2021
Orbit: 721 x 743 km, 92.7° (Epoch: 20 April)

Event Time Altitude Azimuth Distance (km) Brightness Sun altitude
Rises 19:20:18 0° 4° (N) 3,151 6.8 -24.3°
Reaches altitude 10° 19:22:36 10° 3° (N) 2,223 6.0 -24.7°
Maximum altitude 19:27:30 77° 278° (W) 747 3.4 -25.5°
Enters shadow 19:30:10 27° 197° (SSW) 1,364 4.7 -25.9°
